Flag Weather past 2 weeks in Greeley, Colorado, U.S.A.

Now
32 °F

Clear.


Feels Like: 20 °F
Forecast: 18 / 45 °F
Wind: 20 mph from Northwest

Location: Greeley / Weld

Current Time: Nov 24, 2014 at 5:52:17 PM

Latest Report: Nov 24, 2014 at 5:35 PM


Visibility: 10 mi

Pressure: 30.17 "Hg

Humidity: 44%

Dew point: 12 °F

Location of GreeleyLocation

Historic Weather in Greeley — Graph

°F

Greeley temperature yesterday

Maximum temperature yesterday: 46 °F (at 11:15 AM)
Minimum temperature yesterday: 19 °F (at 9:15 PM)
Average temperature yesterday: 35 °F

Past Weeks' High & Low Weather Summary

 TemperatureHumidityPressure
High61 °F (Nov 9, 9:15 PM)85% (Nov 13, 10:15 AM)30.50 "Hg (Nov 13, 10:15 AM)
Low-13 °F (Nov 13, 2:35 AM)22% (Nov 17, 3:15 PM)29.42 "Hg (Nov 10, 4:35 AM)
Average23 °F56%30.02 "Hg
* Reported Nov 9 4:15 PM — Nov 24 4:55 PM, Greeley, Weather by CustomWeather, © 2014

Note: Actual official high and low records may vary slightly from our data, if they occured in-between our weather recording intervals... More about our weather records

Advertising

Greeley weather history for previous 24 hours

 ConditionsComfort  
Time TempWeatherWind HumidityBarometerVisibility
4:55 PM
Nov 24
30 °FClear.16 mph47%30.15 "Hg10 mi
4:35 PM34 °FClear.20 mph48%30.14 "Hg10 mi
4:15 PM34 °FPassing clouds.13 mph51%30.13 "Hg10 mi
3:55 PM36 °FPassing clouds.15 mph52%30.12 "Hg10 mi
3:35 PM34 °FPassing clouds.20 mph56%30.10 "Hg10 mi
3:15 PM34 °FPassing clouds.29 mph56%30.10 "Hg10 mi
2:55 PM37 °FPartly sunny.33 mph41%30.09 "Hg8 mi
2:35 PM43 °FScattered clouds.36 mph31%30.05 "Hg10 mi
2:15 PM43 °FScattered clouds.22 mph34%30.04 "Hg10 mi
1:55 PM39 °FPartly sunny.24 mph39%30.03 "Hg10 mi
1:35 PM41 °FScattered clouds.23 mph36%30.02 "Hg10 mi
1:15 PM39 °FBroken clouds.28 mph33%30.02 "Hg10 mi
12:55 PM43 °FSunny.25 mph29%30.00 "Hg10 mi
12:35 PM43 °FScattered clouds.30 mph29%29.99 "Hg10 mi
11:55 AM43 °FSunny.30 mph29%29.96 "Hg10 mi
11:35 AM43 °FSunny.31 mph29%29.95 "Hg10 mi
11:15 AM43 °FSunny.33 mph31%29.94 "Hg10 mi
10:55 AM41 °FSunny.30 mph31%29.93 "Hg10 mi
10:35 AM43 °FSunny.29 mph34%29.94 "Hg10 mi
10:15 AM39 °FSunny.23 mph33%29.95 "Hg10 mi
9:55 AM39 °FSunny.24 mph36%29.94 "Hg10 mi
9:35 AM39 °FSunny.23 mph33%29.94 "Hg10 mi
9:15 AM37 °FSunny.15 mph35%29.93 "Hg10 mi
8:55 AM39 °FSunny.22 mph36%29.93 "Hg10 mi
8:35 AM36 °FSunny.12 mph38%29.92 "Hg10 mi
8:15 AM36 °FSunny.16 mph41%29.90 "Hg10 mi
7:55 AM36 °FSunny.8 mph41%29.89 "Hg10 mi
7:35 AM32 °FSunny.9 mph44%29.89 "Hg10 mi
7:15 AM30 °FSunny.6 mph43%29.89 "Hg10 mi
6:55 AM34 °FPassing clouds.9 mph41%29.88 "Hg10 mi
6:35 AM32 °FPassing clouds.9 mph44%29.88 "Hg10 mi
6:15 AM28 °FClear.3 mph47%29.87 "Hg10 mi
5:55 AM28 °FClear.7 mph51%29.87 "Hg10 mi
5:35 AM30 °FPassing clouds.9 mph47%29.86 "Hg10 mi
4:55 AM27 °FOvercast.6 mph50%29.86 "Hg10 mi
4:35 AM27 °FOvercast.7 mph54%29.85 "Hg10 mi
3:55 AM21 °FPassing clouds.No wind68%29.86 "Hg10 mi
3:35 AM19 °FPassing clouds.No wind68%29.86 "Hg10 mi
3:15 AM19 °FClear.No wind58%29.86 "Hg10 mi
2:55 AM19 °FClear.5 mph63%29.87 "Hg10 mi
2:35 AM19 °FClear.3 mph68%29.87 "Hg10 mi
2:15 AM21 °FClear.3 mph63%29.87 "Hg10 mi
1:55 AM21 °FClear.3 mph63%29.88 "Hg10 mi
1:35 AM18 °FClear.No wind68%29.88 "Hg10 mi
12:55 AM19 °FClear.5 mph58%29.87 "Hg10 mi
12:35 AM19 °FClear.3 mph63%29.87 "Hg10 mi
12:15 AM19 °FClear.No wind63%29.87 "Hg10 mi
11:55 PM
Nov 23
21 °FClear.5 mph63%29.87 "Hg10 mi
11:35 PM21 °FClear.5 mph63%29.88 "Hg10 mi
11:15 PM21 °FClear.7 mph58%29.88 "Hg10 mi
10:55 PM25 °FClear.8 mph54%29.88 "Hg10 mi
10:35 PM25 °FClear.8 mph54%29.88 "Hg10 mi
10:15 PM25 °FClear.6 mph54%29.89 "Hg10 mi
9:55 PM21 °FClear.3 mph63%29.89 "Hg10 mi
9:35 PM19 °FClear.5 mph63%29.89 "Hg10 mi
9:15 PM19 °FClear.5 mph63%29.89 "Hg10 mi
8:55 PM21 °FClear.7 mph58%29.90 "Hg10 mi
8:35 PM21 °FClear.7 mph63%29.90 "Hg10 mi
8:15 PM23 °FClear.7 mph63%29.91 "Hg10 mi
7:55 PM27 °FClear.5 mph54%29.91 "Hg10 mi
7:35 PM25 °FClear.3 mph59%29.91 "Hg10 mi
7:15 PM28 °FClear.8 mph59%29.91 "Hg10 mi
6:55 PM27 °FClear.8 mph54%29.91 "Hg10 mi
6:35 PM27 °FClear.9 mph54%29.91 "Hg10 mi
6:15 PM30 °FClear.10 mph55%29.90 "Hg10 mi
5:55 PM30 °FClear.14 mph55%29.90 "Hg10 mi
5:35 PM30 °FClear.13 mph55%29.90 "Hg10 mi
Weather by CustomWeather, © 2014

See weather overviewHow to use our weather pages